This is the latest recevied weather packets stored in our database for station/object OK2JCZ-6. If no packets are shown the sender has not sent any weather packets the latest 10 day(s).
| Time | Temp. | Humidity | Pressure | Rain* | Wind** | Luminosity | Snow |
|---|---|---|---|---|---|---|---|
| 1777640078 | 18.33° C | 29% | 1026 hPa | 0 mm | - | - | - |
| 1777639478 | 18.33° C | 29% | 1026.1 hPa | 0 mm | - | - | - |
| 1777638277 | 18.89° C | 28% | 1026.3 hPa | 0 mm | - | - | - |
| 1777637677 | 18.33° C | 29% | 1026.3 hPa | 0 mm | - | - | - |
| 1777637077 | 18.89° C | 28% | 1026.4 hPa | 0 mm | - | - | - |
| 1777636778 | 18.89° C | 28% | 1026.5 hPa | 0 mm | - | - | - |
| 1777636477 | 17.78° C | 30% | 1026.5 hPa | 0 mm | - | - | - |
| 1777636177 | 17.78° C | 29% | 1026.5 hPa | 0 mm | - | - | - |
| 1777635877 | 18.33° C | 28% | 1026.6 hPa | 0 mm | - | - | - |
| 1777635577 | 18.33° C | 29% | 1026.6 hPa | 0 mm | - | - | - |
| 1777635277 | 18.33° C | 29% | 1026.6 hPa | 0 mm | - | - | - |
| 1777634977 | 18.33° C | 29% | 1026.7 hPa | 0 mm | - | - | - |
| 1777634678 | 18.33° C | 28% | 1026.7 hPa | 0 mm | - | - | - |
| 1777634377 | 18.33° C | 28% | 1026.7 hPa | 0 mm | - | - | - |
| 1777634078 | 18.33° C | 29% | 1026.8 hPa | 0 mm | - | - | - |
| 1777633477 | 18.33° C | 28% | 1026.9 hPa | 0 mm | - | - | - |
| 1777632277 | 17.22° C | 29% | 1026.9 hPa | 0 mm | - | - | - |
| 1777631977 | 17.22° C | 29% | 1027.1 hPa | 0 mm | - | - | - |
| 1777631377 | 17.78° C | 30% | 1027.1 hPa | 0 mm | - | - | - |
| 1777631077 | 18.33° C | 30% | 1027.1 hPa | 0 mm | - | - | - |
| 1777630777 | 18.33° C | 29% | 1027.1 hPa | 0 mm | - | - | - |
| 1777630477 | 17.78° C | 30% | 1027.2 hPa | 0 mm | - | - | - |
| 1777629278 | 10.56° C | 31% | 1027.2 hPa | 0 mm | - | - | - |
| 1777628978 | 10.56° C | 34% | 1018.8 hPa | 0 mm | - | - | - |
| 1777628077 | 17.22° C | 34% | 1018.3 hPa | 0 mm | - | - | - |
* Rain latest hour (hover to see other rain measurements)
** Current wind speed in m/s (hover to see current wind gust speed)